Location: ???
(35.5616°N, 139.7977°E)
Time: 02:11:51
(UTC+00:00)

SKYMED 2 - Pass Details

Date: 17 November 2025
Orbit: 621 x 623 km, 97.9° (Epoch: 09 December)

Event Time Altitude Azimuth Distance (km) Brightness Sun altitude
Rises 20:31:13 0° 187° (S) 2,888 7.1 -10.0°
Reaches altitude 10° 20:33:33 10° 196° (SSW) 1,986 6.2 -9.5°
Maximum altitude 20:37:30 35° 262° (W) 1,012 4.2 -8.8°
Drops below altitude 10° 20:41:29 10° 329° (NNW) 1,998 5.7 -8.0°
Sets 20:43:51 0° 338° (NNW) 2,908 6.6 -7.5°
